Flag for Canada Weather past 2 weeks in Sault Ste. Marie, Ontario, Canada

Now
50 °F

Fog.


Feels Like: 46 °F
Forecast: 47 / 67 °F
Wind: 9 mph from Northwest

Location: Sault Ste Marie

Current Time: Jul 30, 2014 at 2:18:46 AM

Latest Report: Jul 30, 2014 at 1:00 AM


Visibility: 3 mi

Pressure: 29.97 "Hg

Humidity: 100%

Dew point: 50 °F

Location of Sault Ste. MarieLocation

Historic Weather in Sault Ste. Marie — Graph

°F

Sault Ste. Marie temperature yesterday

Maximum temperature yesterday: 66 °F (at 4:00 PM)
Minimum temperature yesterday: 48 °F (at 11:00 PM)
Average temperature yesterday: 55 °F

Past Weeks' High & Low Weather Summary

 TemperatureHumidityPressure
High81 °F (Jul 20, 3:00 PM)100% (Jul 15, 1:00 AM)30.18 "Hg (Jul 15, 1:00 AM)
Low43 °F (Jul 25, 4:00 AM)39% (Jul 17, 3:00 PM)29.69 "Hg (Jul 27, 11:00 AM)
Average61 °F79%29.97 "Hg
* Reported Jul 15 1:00 AM — Jul 30 1:00 AM, Sault Ste. Marie, Weather by CustomWeather, © 2014

Note: Actual official high and low records may vary slightly from our data, if they occured in-between our weather recording intervals... More about our weather records

Advertising

Sault Ste. Marie weather history for previous 24 hours

 ConditionsComfort  
Time TempWeatherWind HumidityBarometerVisibility
1:00 AM
Jul 30
50 °FFog.9 mph100%29.97 "Hg3 mi
12:00 AM50 °FFog.6 mph94%29.98 "Hg3 mi
11:00 PM
Jul 29
48 °FPassing clouds.3 mph94%29.97 "Hg7 mi
10:00 PM50 °FPassing clouds.7 mph94%29.97 "Hg7 mi
9:00 PM50 °FFog.13 mph94%29.96 "Hg1 mi
8:50 PM50 °FFog.13 mph94%29.96 "Hg1 mi
8:00 PM52 °FFog.15 mph94%29.96 "Hg4 mi
7:00 PM54 °FBroken clouds.7 mph88%29.96 "Hg15 mi
6:00 PM61 °FPartly sunny.20 mph72%29.94 "Hg15 mi
5:00 PM64 °FScattered clouds.17 mph68%29.93 "Hg15 mi
4:00 PM66 °FScattered clouds.16 mph64%29.92 "Hg15 mi
3:00 PM64 °FScattered clouds.13 mph68%29.93 "Hg15 mi
2:00 PM63 °FPassing clouds.13 mph73%29.93 "Hg15 mi
1:00 PM61 °FScattered clouds.14 mph77%29.94 "Hg15 mi
12:00 PM59 °FPartly sunny.10 mph82%29.95 "Hg15 mi
11:00 AM57 °FPartly sunny.14 mph82%29.94 "Hg15 mi
10:54 AM57 °FPartly sunny.15 mph82%29.94 "Hg15 mi
10:00 AM55 °FPartly sunny.13 mph88%29.94 "Hg10 mi
9:45 AM55 °FPartly sunny.15 mph88%29.94 "Hg15 mi
9:00 AM54 °FPartly sunny.9 mph94%29.94 "Hg12 mi
8:00 AM52 °FFog.8 mph94%29.94 "Hg6 mi
7:00 AM50 °FFog.3 mph100%29.93 "Hg1 mi
6:00 AM50 °FFog.7 mph100%29.92 "Hg1 mi
5:48 AM50 °FFog.9 mph100%29.91 "Hg1 mi
5:00 AM52 °FFog.12 mph94%29.91 "Hg3 mi
4:51 AM52 °FLow clouds.10 mph100%29.91 "Hg15 mi
4:00 AM54 °FMostly cloudy.9 mph94%29.91 "Hg15 mi
3:00 AM55 °FPartly cloudy.7 mph88%29.91 "Hg15 mi
2:53 AM55 °FPartly cloudy.6 mph88%29.91 "Hg15 mi
2:00 AM55 °FOvercast.3 mph88%29.93 "Hg15 mi
Weather by CustomWeather, © 2014

See weather overviewHow to use our weather pages